Burnet, TX

2:31 PM CDT on May 23, 2018 (GMT -0500)
Burnet Municipal-Craddock

Weather History for KBMQ - December, 2013

Change the Weather History Date:

Friday, December 20, 2013

  Actual Average Record
Temperature  
Mean Temperature 66 °F -  
Max Temperature 70 °F 55 °F 78 °F (2008)
Min Temperature 57 °F 34 °F 23 °F (1996)
Cooling Degree Days 1    
Growing Degree Days 16 (Base 50)    
Moisture  
Dew Point 61 °F    
Average Humidity 84    
Maximum Humidity 94    
Minimum Humidity 71    
Precipitation  
Precipitation 0.00 in - - ()
Sea Level Pressure  
Sea Level Pressure 29.77 in    
Wind  
Wind Speed 9 mph (SSE)    
Max Wind Speed 14 mph    
Max Gust Speed 22 mph    
Visibility 8 miles    
Events Rain    
Averages and records for this station are not official NWS values.
T = Trace of Precipitation, MM = Missing Value Source: NWS Daily Summary

Daily Weather History Graph

Daily Weather History Graph

Search for Another Location

Airport or City:

Astronomy

Dec. 20, 2013 Rise Set
Actual Time 7:26 AM CST 5:35 PM CST
Civil Twilight 6:59 AM CST 6:02 PM CST
Nautical Twilight 6:29 AM CST 6:32 PM CST
Astronomical Twilight 5:59 AM CST 7:01 PM CST
Moon 8:46 PM CST (12/20) 9:30 AM CST (12/20)
Length of Visible Light 11h 02m
Length of Day
10h 09m
Waning Gibbous, 90% of the Moon is Illuminated
Dec 20
Waning Gibbous
Dec 25
Last Quarter
Jan 1
New
Jan 7
First Quarter
Jan 15
Full

Hourly Weather History & Observations

Time (CST) Temp. Dew Point Humidity Pressure Visibility Wind Dir Wind Speed Gust Speed Precip Events Conditions
12:33 AM 63.0 °F 60.1 °F 90% 29.83 in 9.0 mi South 11.5 mph 20.7 mph N/A   Overcast
12:50 AM 62.6 °F 60.8 °F 94% 29.83 in 9.0 mi South 13.8 mph 21.9 mph N/A   Overcast
12:53 AM 63.0 °F 60.1 °F 90% 29.79 in 9.0 mi South 12.7 mph 21.9 mph N/A   Overcast
1:53 AM 64.0 °F 61.0 °F 90% 29.78 in 9.0 mi South 10.4 mph 21.9 mph N/A   Overcast
2:53 AM 64.0 °F 61.0 °F 90% 29.78 in 8.0 mi South 13.8 mph - N/A   Overcast
3:53 AM 63.0 °F 60.1 °F 90% 29.78 in 8.0 mi South 6.9 mph - N/A   Overcast
4:53 AM 63.0 °F 60.1 °F 90% 29.79 in 8.0 mi South 8.1 mph - N/A   Overcast
5:34 AM 63.0 °F 60.1 °F 90% 29.82 in 8.0 mi South 10.4 mph 20.7 mph N/A   Overcast
5:49 AM 62.6 °F 60.8 °F 94% 29.82 in 8.0 mi South 11.5 mph 20.7 mph N/A   Overcast
5:53 AM 63.0 °F 60.1 °F 90% 29.79 in 8.0 mi South 11.5 mph 18.4 mph N/A   Overcast
6:53 AM 64.0 °F 60.1 °F 87% 29.81 in 9.0 mi South 9.2 mph 19.6 mph N/A   Overcast
7:53 AM 64.0 °F 61.0 °F 90% 29.81 in 7.0 mi South 11.5 mph - N/A   Overcast
8:53 AM 64.9 °F 61.0 °F 87% 29.82 in 8.0 mi South 10.4 mph - N/A   Overcast
9:53 AM 66.0 °F 61.0 °F 84% 29.84 in 7.0 mi South 6.9 mph - N/A   Overcast
10:26 AM 66.0 °F 61.0 °F 84% 29.87 in 8.0 mi South 10.4 mph - N/A   Overcast
10:53 AM 66.0 °F 61.0 °F 84% 29.84 in 8.0 mi South 8.1 mph - N/A   Overcast
11:53 AM 66.9 °F 61.0 °F 81% 29.82 in 8.0 mi South 10.4 mph - 0.00 in   Scattered Clouds
12:51 PM 68.0 °F 60.8 °F 78% 29.83 in 7.0 mi South 6.9 mph - 0.00 in Rain Light Rain
12:53 PM 68.0 °F 62.1 °F 81% 29.79 in 7.0 mi South 8.1 mph - 0.00 in Rain Light Rain
1:25 PM 69.1 °F 61.0 °F 75% 29.81 in 8.0 mi South 9.2 mph - 0.00 in   Scattered Clouds
1:50 PM 69.8 °F 60.8 °F 73% 29.80 in 8.0 mi SSW 8.1 mph - 0.00 in   Mostly Cloudy
1:53 PM 69.1 °F 60.1 °F 73% 29.76 in 8.0 mi SSW 10.4 mph - 0.00 in   Mostly Cloudy
2:09 PM 70.0 °F 60.1 °F 71% 29.79 in 9.0 mi SSW 6.9 mph - N/A   Scattered Clouds
2:22 PM 70.0 °F 60.1 °F 71% 29.78 in 9.0 mi South 8.1 mph - N/A   Mostly Cloudy
2:53 PM 70.0 °F 60.1 °F 71% 29.74 in 9.0 mi South 6.9 mph - N/A   Scattered Clouds
3:53 PM 70.0 °F 60.1 °F 71% 29.72 in 9.0 mi South 6.9 mph - N/A   Clear
4:14 PM 70.0 °F 60.1 °F 71% 29.76 in 9.0 mi South 3.5 mph - N/A   Mostly Cloudy
4:39 PM 70.0 °F 60.1 °F 71% 29.76 in 9.0 mi SE 4.6 mph - N/A   Mostly Cloudy
4:53 PM 69.1 °F 61.0 °F 75% 29.72 in 8.0 mi SE 3.5 mph - N/A   Partly Cloudy
5:53 PM 66.9 °F 62.1 °F 84% 29.71 in 8.0 mi ESE 5.8 mph - N/A   Partly Cloudy
6:53 PM 66.9 °F 62.1 °F 84% 29.70 in 7.0 mi SE 5.8 mph - N/A   Clear
7:53 PM 66.0 °F 62.1 °F 87% 29.70 in 7.0 mi SSE 3.5 mph - N/A   Mostly Cloudy
8:03 PM 66.0 °F 62.1 °F 87% 29.74 in 7.0 mi Calm Calm - N/A   Overcast
8:22 PM 66.9 °F 63.0 °F 87% 29.74 in 7.0 mi ESE 3.5 mph - N/A   Overcast
8:53 PM 66.9 °F 64.0 °F 90% 29.70 in 6.0 mi ESE 5.8 mph - N/A   Overcast
9:03 PM 66.9 °F 64.0 °F 90% 29.73 in 6.0 mi ESE 5.8 mph - N/A   Overcast
9:53 PM 68.0 °F 64.9 °F 90% 29.65 in 5.0 mi SE 12.7 mph 19.6 mph N/A   Overcast
10:51 PM 69.8 °F 64.4 °F 83% 29.70 in 6.0 mi SE 5.8 mph 20.7 mph N/A   Overcast
10:53 PM 69.1 °F 64.9 °F 87% 29.67 in 6.0 mi SE 10.4 mph 20.7 mph N/A   Overcast
11:07 PM 69.1 °F 64.9 °F 87% 29.71 in 6.0 mi SE 4.6 mph - N/A   Overcast
11:53 PM 57.9 °F 53.1 °F 84% 29.72 in 7.0 mi NW 11.5 mph - N/A   Overcast